This demonstration page uses our WeatherBlox Daily Observations layout. Learn more.

40.92945, -100.16068

Hourly Observations for December 2, 2018

Temp ( °F °C ) Dew Point ( °F °C ) Humidity (%) Winds ( mph kmh ) Pressure ( in mb ) Visibility ( mi km ) Precip ( " mm )
12:15 am 00:15 Cloudy 32 0 28 -2 87 87 N 24 39 29.68 1005 7 11.265408 0 0
12:35 am 00:35 Cloudy with Mist and Fog 32 0 29 -1.9 87 87 N 22 35 29.74 1007 5 8.04672 0 0
12:55 am 00:55 Windy with Snow Likely 32 0 29 -1.9 87 87 N 21 33 29.74 1007 5 8.04672 0 0
1:15 am 01:15 Cloudy 32 0 28 -2 87 87 N 21 33 29.74 1007 10 16.09344 0 0
1:35 am 01:35 Cloudy with Light Wintry Mix 32 0 29 -1.9 87 87 N 22 35 29.74 1007 7 11.265408 0 0
1:55 am 01:55 Cloudy with Mist and Fog 32 0 29 -1.5 90 90 N 23 37 29.77 1008 5 8.04672 0 0
2:15 am 02:15 Cloudy with Mist and Fog 32 0 29 -1.5 90 90 N 18 30 29.77 1008 5 8.04672 0 0
2:35 am 02:35 Cloudy 32 0 29 -1.9 87 87 N 23 37 29.77 1008 7 11.265408 0 0
2:55 am 02:55 Cloudy 32 -0.1 29 -1.9 88 88 N 21 33 29.77 1008 10 16.09344 0 0
3:15 am 03:15 Cloudy 32 -0.2 28 -2.1 87 87 N 18 30 29.77 1008 10 16.09344 0 0
3:35 am 03:35 Cloudy 32 -0.2 28 -2.4 85 85 N 22 35 29.77 1008 10 16.09344 0 0
3:55 am 03:55 Cloudy 32 -0.2 28 -2.1 87 87 N 22 35 29.77 1008 10 16.09344 0 0
4:15 am 04:15 Cloudy 32 -0.2 28 -2.1 87 87 N 21 33 29.77 1008 10 16.09344 0 0
4:35 am 04:35 Cloudy 32 -0.1 28 -2.2 86 86 N 22 35 29.8 1009 10 16.09344 0 0
4:55 am 04:55 Cloudy 32 -0.1 28 -2.5 84 84 N 22 35 29.8 1009 10 16.09344 0 0
5:15 am 05:15 Cloudy 32 -0.2 27 -2.8 83 83 N 21 33 29.8 1009 10 16.09344 0 0
5:35 am 05:35 Cloudy 32 -0.2 27 -2.8 83 83 N 21 33 29.8 1009 10 16.09344 0 0
5:55 am 05:55 Cloudy 31 -0.5 27 -3 83 83 N 22 35 29.8 1009 10 16.09344 0 0
6:15 am 06:15 Cloudy 31 -0.6 26 -3.1 83 83 N 23 37 29.8 1009 10 16.09344 0 0
6:35 am 06:35 Cloudy 31 -0.6 26 -3.4 82 82 N 23 37 29.8 1009 10 16.09344 0 0
6:55 am 06:55 Cloudy 31 -0.7 26 -3.6 81 81 N 24 39 29.8 1009 10 16.09344 0 0
7:15 am 07:15 Cloudy 31 -0.8 26 -3.5 82 82 N 20 31 29.83 1010 10 16.09344 0 0
7:35 am 07:35 Cloudy 30 -1 26 -3.6 83 83 N 18 30 29.83 1010 10 16.09344 0 0
7:55 am 07:55 Cloudy 30 -1 26 -3.5 83 83 N 20 31 29.83 1010 10 16.09344 0 0
8:15 am 08:15 Cloudy with Light Snow 30 -1.1 26 -3.3 85 85 N 16 26 29.85 1011 1.75 2.816352 0 0
8:35 am 08:35 Cloudy with Light Snow 30 -1.3 26 -3.4 86 86 N 18 30 29.85 1011 1.25 2.01168 0 0
8:55 am 08:55 Cloudy with Light Snow 29 -1.5 26 -3.2 88 88 N 13 20 29.85 1011 1.25 2.01168 0 0
9:15 am 09:15 Cloudy with Light Snow 29 -1.5 26 -3.5 86 86 N 16 26 29.91 1013 1.25 2.01168 0.01 0.254
9:35 am 09:35 Cloudy with Light Snow 29 -1.7 25 -3.8 86 86 N 17 28 29.91 1013 1.75 2.816352 0.01 0.254
9:55 am 09:55 Windy with Snow Likely 29 -1.7 25 -4 85 85 N 21 33 29.91 1013 2 3.218688 0.01 0.254
10:15 am 10:15 Cloudy with Light Snow 29 -1.8 24 -4.3 83 83 N 16 26 29.94 1014 2.5 4.02336 0 0
10:35 am 10:35 Cloudy with Light Snow 28 -2.2 24 -4.6 84 84 N 18 30 29.94 1014 1.25 2.01168 0 0
10:55 am 10:55 Cloudy with Light Snow 28 -2.1 24 -4.5 84 84 N 16 26 29.94 1014 2.5 4.02336 0 0
11:15 am 11:15 Cloudy 29 -1.8 24 -4.3 83 83 N 18 30 29.94 1014 10 16.09344 0 0
11:35 am 11:35 Cloudy 28 -2 24 -4.7 82 82 N 15 24 29.97 1015 10 16.09344 0 0
11:55 am 11:55 Cloudy 28 -2.1 23 -4.9 81 81 N 17 28 29.97 1015 10 16.09344 0 0
12:15 pm 12:15 Cloudy 28 -2.5 22 -5.3 81 81 N 17 28 29.97 1015 10 16.09344 0 0
12:35 pm 12:35 Cloudy 27 -2.6 22 -5.5 81 81 N 16 26 29.97 1015 7 11.265408 0 0
12:55 pm 12:55 Cloudy with Light Snow 27 -2.7 22 -5.3 83 83 N 15 24 29.97 1015 2.5 4.02336 0 0
1:15 pm 13:15 Cloudy with Light Snow 27 -3 22 -5.5 83 83 N 14 22 29.97 1015 1.5 2.414016 0 0
1:35 pm 13:35 Cloudy with Light Snow 27 -2.8 22 -5.6 81 81 N 16 26 29.97 1015 2.5 4.02336 0 0
1:55 pm 13:55 Cloudy with Light Snow 27 -3 22 -5.5 83 83 N 14 22 29.97 1015 2.5 4.02336 0 0
2:15 pm 14:15 Cloudy with Light Snow 27 -3 22 -5.7 82 82 N 15 24 30 1016 2.5 4.02336 0 0
2:35 pm 14:35 Cloudy with Light Snow 26 -3.1 21 -5.9 81 81 N 17 28 30 1016 2 3.218688 0 0
2:55 pm 14:55 Cloudy with Light Snow 26 -3.1 22 -5.8 82 82 N 16 26 30 1016 2 3.218688 0 0
3:15 pm 15:15 Cloudy with Light Snow 26 -3.1 22 -5.8 82 82 NNW 16 26 30.03 1017 2 3.218688 0 0
3:35 pm 15:35 Cloudy with Light Snow 26 -3.2 22 -5.6 84 84 N 17 28 30.06 1018 1.5 2.414016 0 0
3:55 pm 15:55 Cloudy with Light Snow 26 -3.3 22 -5.5 85 85 N 16 26 30.06 1018 1.25 2.01168 0 0
4:15 pm 16:15 Cloudy with Light Snow 26 -3.5 22 -5.5 86 86 N 12 19 30.09 1019 2 3.218688 0 0
4:35 pm 16:35 Cloudy with Light Snow 26 -3.6 22 -5.5 87 87 N 12 19 30.09 1019 2 3.218688 0 0
4:55 pm 16:55 Cloudy with Light Snow 26 -3.5 21 -6 83 83 N 13 20 30.09 1019 7 11.265408 0 0
5:15 pm 17:15 Windy with Snow Likely 25 -3.8 21 -6 85 85 N 20 31 30.12 1020 2.5 4.02336 0 0
5:35 pm 17:35 Cloudy 25 -3.9 21 -6.1 85 85 N 13 20 30.12 1020 10 16.09344 0 0
5:55 pm 17:55 Cloudy 25 -4 21 -6.3 84 84 N 15 24 30.12 1020 10 16.09344 0 0
6:15 pm 18:15 Cloudy 25 -4 21 -6.3 84 84 N 14 22 30.12 1020 10 16.09344 0 0
6:35 pm 18:35 Cloudy 25 -4 21 -6.2 85 85 N 15 24 30.15 1021 10 16.09344 0 0
6:55 pm 18:55 Cloudy 25 -4 21 -6.3 84 84 N 15 24 30.15 1021 10 16.09344 0 0
7:15 pm 19:15 Cloudy 25 -4 21 -6.1 86 86 N 16 26 30.15 1021 10 16.09344 0 0
7:35 pm 19:35 Cloudy 25 -4 21 -6.3 84 84 N 14 22 30.15 1021 10 16.09344 0 0
7:55 pm 19:55 Cloudy 25 -4 21 -6.2 85 85 N 18 30 30.18 1022 10 16.09344 0 0
8:15 pm 20:15 Cloudy 25 -4.1 21 -6.1 86 86 N 15 24 30.18 1022 10 16.09344 0 0
8:35 pm 20:35 Cloudy 24 -4.2 21 -6.1 87 87 N 13 20 30.18 1022 10 16.09344 0 0
8:55 pm 20:55 Cloudy 24 -4.3 21 -6.3 86 86 N 14 22 30.18 1022 10 16.09344 0 0
9:15 pm 21:15 Cloudy 24 -4.5 20 -6.5 86 86 N 14 22 30.18 1022 10 16.09344 0 0
9:35 pm 21:35 Cloudy 24 -4.3 20 -6.4 85 85 N 14 22 30.18 1022 10 16.09344 0 0
9:55 pm 21:55 Cloudy 24 -4.2 21 -6.2 86 86 N 12 19 30.18 1022 10 16.09344 0 0
10:15 pm 22:15 Cloudy 24 -4.2 21 -6.3 85 85 N 16 26 30.18 1022 10 16.09344 0 0
10:35 pm 22:35 Cloudy 24 -4.2 21 -6.3 85 85 N 15 24 30.18 1022 10 16.09344 0 0
10:55 pm 22:55 Cloudy 24 -4.2 21 -6.2 86 86 N 13 20 30.18 1022 10 16.09344 0 0
11:15 pm 23:15 Cloudy 24 -4.3 20 -6.4 85 85 N 13 20 30.21 1023 10 16.09344 0 0
11:35 pm 23:35 Cloudy 24 -4.3 20 -6.5 85 85 N 15 24 30.21 1023 10 16.09344 0 0
11:55 pm 23:55 Cloudy 24 -4.5 20 -6.5 86 86 N 14 22 30.21 1023 10 16.09344 0 0

Powered by AerisWeather